This is the latest recevied weather packets stored in our database for station/object K3CHZ. If no packets are shown the sender has not sent any weather packets the latest 10 day(s).
| Time | Temp. | Humidity | Pressure | Rain* | Wind** | Luminosity | Snow |
|---|---|---|---|---|---|---|---|
| 1778271004 | 20° C | 36% | 1011.8 hPa | 0 mm | - | - | - |
| 1778270539 | 20° C | 35% | 1011.9 hPa | 0 mm | - | - | - |
| 1778270238 | 20° C | 37% | 1011.9 hPa | 0 mm | - | - | - |
| 1778269938 | 20° C | 36% | 1012 hPa | 0 mm | - | - | - |
| 1778269637 | 20° C | 36% | 1012 hPa | 0 mm | - | - | - |
| 1778269338 | 20° C | 36% | 1012.1 hPa | 0 mm | - | - | - |
| 1778269038 | 20° C | 36% | 1012.2 hPa | 0 mm | - | - | - |
| 1778268738 | 20° C | 37% | 1012.3 hPa | 0 mm | - | - | - |
| 1778268440 | 20° C | 32% | 1012.3 hPa | 0 mm | - | - | - |
| 1778268138 | 20° C | 35% | 1012.6 hPa | 0 mm | - | - | - |
| 1778267838 | 20° C | 35% | 1012.7 hPa | 0 mm | - | - | - |
| 1778267538 | 20° C | 33% | 1012.8 hPa | 0 mm | - | - | - |
| 1778267240 | 19.44° C | 33% | 1012.8 hPa | 0 mm | - | - | - |
| 1778266937 | 20° C | 34% | 1012.8 hPa | 0 mm | - | - | - |
| 1778266638 | 20° C | 36% | 1012.9 hPa | 0 mm | - | - | - |
| 1778266038 | 20° C | 33% | 1012.9 hPa | 0 mm | - | - | - |
| 1778265438 | 20° C | 33% | 1012.9 hPa | 0 mm | - | - | - |
| 1778265137 | 19.44° C | 36% | 1013 hPa | 0 mm | - | - | - |
| 1778264839 | 19.44° C | 36% | 1013.1 hPa | 0 mm | - | - | - |
| 1778264540 | 19.44° C | 36% | 1012.9 hPa | 0 mm | - | - | - |
| 1778263937 | 19.44° C | 35% | 1013.2 hPa | 0 mm | - | - | - |
| 1778263638 | 20° C | 38% | 1013.1 hPa | 0 mm | - | - | - |
| 1778263338 | 20° C | 39% | 1013.2 hPa | 0 mm | - | - | - |
| 1778263038 | 19.44° C | 39% | 1013.2 hPa | 0 mm | - | - | - |
| 1778262738 | 20° C | 36% | 1013.2 hPa | 0 mm | - | - | - |
* Rain latest hour (hover to see other rain measurements)
** Current wind speed in m/s (hover to see current wind gust speed)